Time,TemperatureF,DewpointF,PressureIn,WindDirection,WindDirectionDegrees,WindSpeedMPH,WindSpeedGustMPH,Humidity,HourlyPrecipIn,Conditions,Clouds,dailyrainin,SoftwareType,DateUTC
2013-07-14 00:02:00,74.0,71.0,-100.00,West,271,1.0,3.0,90,0.00,,,-99.99,,2013-07-14 04:02:00,
2013-07-14 00:11:00,74.0,71.0,-100.00,West,271,1.0,3.0,90,0.00,,,-99.99,,2013-07-14 04:11:00,
2013-07-14 00:22:00,74.0,71.0,-100.00,South,169,2.0,3.0,89,0.00,,,-99.99,,2013-07-14 04:22:00,
2013-07-14 00:32:00,74.0,71.0,-100.00,South,169,2.0,3.0,89,0.00,,,-99.99,,2013-07-14 04:32:00,
2013-07-14 00:42:00,74.0,71.0,-100.00,South,169,2.0,3.0,89,0.00,,,-99.99,,2013-07-14 04:42:00,
2013-07-14 00:54:00,74.0,71.0,-100.00,SSE,147,3.0,7.0,89,0.00,,,-99.99,,2013-07-14 04:54:00,
2013-07-14 01:02:00,74.0,71.0,-100.00,SSE,158,3.0,6.0,89,0.00,,,-99.99,,2013-07-14 05:02:00,
2013-07-14 01:11:00,74.0,71.0,-100.00,SSE,158,3.0,6.0,89,0.00,,,-99.99,,2013-07-14 05:11:00,
2013-07-14 01:23:00,74.0,70.0,-100.00,WSW,237,2.0,6.0,90,0.00,,,-99.99,,2013-07-14 05:23:00,
2013-07-14 01:32:00,74.0,70.0,-100.00,WSW,237,2.0,6.0,90,0.00,,,-99.99,,2013-07-14 05:32:00,
2013-07-14 01:43:00,73.0,70.0,-100.00,SSE,164,2.0,6.0,90,0.00,,,-99.99,,2013-07-14 05:43:00,
2013-07-14 01:53:00,73.0,70.0,-100.00,SSE,164,2.0,6.0,90,0.00,,,-99.99,,2013-07-14 05:53:00,
2013-07-14 02:01:00,73.0,70.0,-100.00,SSE,157,3.0,6.0,91,0.00,,,-99.99,,2013-07-14 06:01:00,
2013-07-14 02:12:00,73.0,70.0,-100.00,SSE,157,3.0,6.0,91,0.00,,,-99.99,,2013-07-14 06:12:00,
2013-07-14 02:22:00,73.0,70.0,-100.00,SSE,157,3.0,6.0,91,0.00,,,-99.99,,2013-07-14 06:22:00,
2013-07-14 02:32:00,73.0,70.0,-100.00,SW,220,1.0,3.0,92,0.00,,,-99.99,,2013-07-14 06:32:00,
2013-07-14 02:42:00,72.0,70.0,-100.00,SSW,208,2.0,3.0,92,0.00,,,-99.99,,2013-07-14 06:42:00,
2013-07-14 02:53:00,72.0,70.0,-100.00,SSW,208,2.0,3.0,92,0.00,,,-99.99,,2013-07-14 06:53:00,
2013-07-14 03:02:00,72.0,70.0,-100.00,SW,234,0.0,1.0,93,0.00,,,-99.99,,2013-07-14 07:02:00,
2013-07-14 03:12:00,72.0,70.0,-100.00,SW,234,0.0,1.0,93,0.00,,,-99.99,,2013-07-14 07:12:00,
2013-07-14 03:22:00,71.0,69.0,-100.00,WSW,244,0.0,2.0,94,0.00,,,-99.99,,2013-07-14 07:22:00,
2013-07-14 03:33:00,71.0,69.0,-100.00,WSW,244,0.0,2.0,94,0.00,,,-99.99,,2013-07-14 07:33:00,
2013-07-14 03:43:00,71.0,70.0,-100.00,West,275,1.0,2.0,94,0.00,,,-99.99,,2013-07-14 07:43:00,
2013-07-14 03:53:00,71.0,70.0,-100.00,West,275,1.0,2.0,94,0.00,,,-99.99,,2013-07-14 07:53:00,
2013-07-14 04:01:00,71.0,70.0,-100.00,SE,144,2.0,4.0,94,0.00,,,-99.99,,2013-07-14 08:01:00,
2013-07-14 04:11:00,71.0,70.0,-100.00,SE,144,2.0,4.0,94,0.00,,,-99.99,,2013-07-14 08:11:00,
2013-07-14 04:22:00,72.0,70.0,-100.00,SSW,205,1.0,4.0,94,0.00,,,-99.99,,2013-07-14 08:22:00,
2013-07-14 04:32:00,72.0,70.0,-100.00,SSW,205,1.0,4.0,94,0.00,,,-99.99,,2013-07-14 08:32:00,
2013-07-14 04:42:00,72.0,70.0,-100.00,SSW,205,1.0,4.0,94,0.00,,,-99.99,,2013-07-14 08:42:00,
2013-07-14 04:53:00,72.0,70.0,-100.00,South,175,2.0,5.0,93,0.00,,,-99.99,,2013-07-14 08:53:00,
2013-07-14 05:01:00,72.0,70.0,-100.00,SSE,155,2.0,4.0,94,0.00,,,-99.99,,2013-07-14 09:01:00,
2013-07-14 05:11:00,72.0,70.0,-100.00,SSE,155,2.0,4.0,94,0.00,,,-99.99,,2013-07-14 09:11:00,
2013-07-14 05:22:00,72.0,70.0,-100.00,South,179,0.0,2.0,94,0.00,,,-99.99,,2013-07-14 09:22:00,
2013-07-14 05:32:00,72.0,70.0,-100.00,South,179,0.0,2.0,94,0.00,,,-99.99,,2013-07-14 09:32:00,
2013-07-14 05:42:00,72.0,70.0,-100.00,South,179,0.0,2.0,94,0.00,,,-99.99,,2013-07-14 09:42:00,
2013-07-14 05:53:00,71.0,70.0,-100.00,SE,124,0.0,1.0,94,0.00,,,-99.99,,2013-07-14 09:53:00,
2013-07-14 06:01:00,71.0,70.0,-100.00,SE,124,0.0,1.0,95,0.00,,,-99.99,,2013-07-14 10:01:00,
2013-07-14 06:12:00,71.0,70.0,-100.00,SE,124,0.0,1.0,95,0.00,,,-99.99,,2013-07-14 10:12:00,
2013-07-14 06:22:00,71.0,70.0,-100.00,SE,124,0.0,1.0,95,0.00,,,-99.99,,2013-07-14 10:22:00,
2013-07-14 06:32:00,71.0,69.0,-100.00,SSE,148,0.0,2.0,95,0.00,,,-99.99,,2013-07-14 10:32:00,
2013-07-14 06:42:00,71.0,69.0,-100.00,ENE,76,0.0,1.0,95,0.00,,,-99.99,,2013-07-14 10:42:00,
2013-07-14 06:53:00,71.0,69.0,-100.00,ENE,76,0.0,1.0,95,0.00,,,-99.99,,2013-07-14 10:53:00,
2013-07-14 07:02:00,71.0,70.0,-100.00,SE,131,1.0,2.0,96,0.00,,,-99.99,,2013-07-14 11:02:00,
2013-07-14 07:11:00,71.0,70.0,-100.00,SE,131,1.0,2.0,96,0.00,,,-99.99,,2013-07-14 11:11:00,
2013-07-14 07:22:00,72.0,70.0,-100.00,East,92,1.0,2.0,96,0.00,,,-99.99,,2013-07-14 11:22:00,
2013-07-14 07:32:00,72.0,70.0,-100.00,East,92,1.0,2.0,96,0.00,,,-99.99,,2013-07-14 11:32:00,
2013-07-14 07:43:00,72.0,71.0,-100.00,ESE,104,2.0,3.0,96,0.00,,,-99.99,,2013-07-14 11:43:00,
2013-07-14 07:53:00,72.0,71.0,-100.00,ESE,104,2.0,3.0,96,0.00,,,-99.99,,2013-07-14 11:53:00,
2013-07-14 08:02:00,73.0,72.0,-100.00,SSE,158,0.0,2.0,96,0.00,,,-99.99,,2013-07-14 12:02:00,
2013-07-14 08:12:00,73.0,72.0,-100.00,SSE,158,0.0,2.0,96,0.00,,,-99.99,,2013-07-14 12:12:00,
2013-07-14 08:22:00,73.0,72.0,-100.00,SSE,158,0.0,2.0,96,0.00,,,-99.99,,2013-07-14 12:22:00,
2013-07-14 08:33:00,74.0,73.0,-100.00,ESE,123,0.0,2.0,94,0.00,,,-99.99,,2013-07-14 12:33:00,
2013-07-14 08:43:00,75.0,-99.9,-100.00,SE,131,1.0,3.0,-999,0.00,,,-99.99,,2013-07-14 12:43:00,
2013-07-14 08:53:00,75.0,-99.9,-100.00,SE,131,1.0,3.0,-999,0.00,,,-99.99,,2013-07-14 12:53:00,
2013-07-14 09:01:00,76.0,73.0,-100.00,ESE,119,3.0,7.0,91,0.00,,,-99.99,,2013-07-14 13:01:00,
2013-07-14 09:11:00,76.0,73.0,-100.00,ESE,119,3.0,7.0,91,0.00,,,-99.99,,2013-07-14 13:11:00,
2013-07-14 09:32:00,77.0,72.0,-100.00,SE,138,2.0,4.0,87,0.00,,,-99.99,,2013-07-14 13:32:00,
2013-07-14 09:42:00,77.0,72.0,-100.00,SE,138,2.0,4.0,87,0.00,,,-99.99,,2013-07-14 13:42:00,
2013-07-14 09:53:00,77.0,73.0,-100.00,ESE,110,2.0,6.0,86,0.00,,,-99.99,,2013-07-14 13:53:00,
2013-07-14 10:02:00,79.0,73.0,-100.00,ESE,107,2.0,4.0,83,0.00,,,-99.99,,2013-07-14 14:02:00,
2013-07-14 10:11:00,79.0,73.0,-100.00,ESE,107,2.0,4.0,83,0.00,,,-99.99,,2013-07-14 14:11:00,
2013-07-14 10:23:00,80.0,72.0,-100.00,ESE,103,3.0,5.0,78,0.00,,,-99.99,,2013-07-14 14:23:00,
2013-07-14 10:33:00,80.0,72.0,-100.00,ESE,103,3.0,5.0,78,0.00,,,-99.99,,2013-07-14 14:33:00,
2013-07-14 10:43:00,80.0,72.0,-100.00,ESE,103,3.0,5.0,78,0.00,,,-99.99,,2013-07-14 14:43:00,
2013-07-14 10:53:00,81.0,74.0,-100.00,East,97,2.0,4.0,77,0.00,,,-99.99,,2013-07-14 14:53:00,
2013-07-14 11:01:00,80.0,73.0,-100.00,ESE,109,2.0,4.0,79,0.00,,,-99.99,,2013-07-14 15:01:00,
2013-07-14 11:12:00,80.0,73.0,-100.00,ESE,109,2.0,4.0,79,0.00,,,-99.99,,2013-07-14 15:12:00,
2013-07-14 11:22:00,80.0,73.0,-100.00,ESE,109,2.0,4.0,79,0.00,,,-99.99,,2013-07-14 15:22:00,
2013-07-14 11:32:00,80.0,73.0,-100.00,ESE,109,2.0,4.0,79,0.00,,,-99.99,,2013-07-14 15:32:00,
2013-07-14 11:42:00,83.0,73.0,-100.00,East,96,3.0,5.0,71,0.00,,,-99.99,,2013-07-14 15:42:00,
2013-07-14 11:53:00,83.0,73.0,-100.00,East,96,3.0,5.0,71,0.00,,,-99.99,,2013-07-14 15:53:00,
2013-07-14 12:01:00,84.0,72.0,-100.00,ESE,103,4.0,6.0,68,0.00,,,-99.99,,2013-07-14 16:01:00,
2013-07-14 12:11:00,84.0,72.0,-100.00,ESE,103,4.0,6.0,68,0.00,,,-99.99,,2013-07-14 16:11:00,
2013-07-14 12:22:00,84.0,72.0,-100.00,ESE,103,4.0,6.0,68,0.00,,,-99.99,,2013-07-14 16:22:00,
2013-07-14 12:32:00,84.0,72.0,-100.00,ESE,103,4.0,6.0,68,0.00,,,-99.99,,2013-07-14 16:32:00,
2013-07-14 12:43:00,85.0,71.0,-100.00,East,99,3.0,5.0,65,0.00,,,-99.99,,2013-07-14 16:43:00,
2013-07-14 12:54:00,85.0,71.0,-100.00,East,99,3.0,5.0,65,0.00,,,-99.99,,2013-07-14 16:54:00,
2013-07-14 13:03:00,86.0,72.0,-100.00,ESE,104,3.0,5.0,63,0.00,,,-99.99,,2013-07-14 17:03:00,
2013-07-14 13:11:00,86.0,72.0,-100.00,ESE,104,3.0,5.0,63,0.00,,,-99.99,,2013-07-14 17:11:00,
2013-07-14 13:22:00,86.0,72.0,-100.00,ESE,104,3.0,5.0,63,0.00,,,-99.99,,2013-07-14 17:22:00,
2013-07-14 13:32:00,86.0,74.0,-100.00,ESE,119,4.0,7.0,69,0.00,,,-99.99,,2013-07-14 17:32:00,
2013-07-14 13:43:00,86.0,74.0,-100.00,ESE,119,4.0,7.0,69,0.00,,,-99.99,,2013-07-14 17:43:00,
2013-07-14 13:53:00,86.0,71.0,-100.00,ESE,109,2.0,5.0,61,0.00,,,-99.99,,2013-07-14 17:53:00,
2013-07-14 14:01:00,86.0,71.0,-100.00,ESE,109,2.0,5.0,61,0.00,,,-99.99,,2013-07-14 18:01:00,
2013-07-14 14:11:00,86.0,73.0,-100.00,ESE,106,3.0,4.0,65,0.00,,,-99.99,,2013-07-14 18:11:00,
2013-07-14 14:22:00,86.0,73.0,-100.00,ESE,106,3.0,4.0,65,0.00,,,-99.99,,2013-07-14 18:22:00,
2013-07-14 14:32:00,87.0,71.0,-100.00,SE,128,3.0,5.0,59,0.00,,,-99.99,,2013-07-14 18:32:00,
2013-07-14 14:42:00,88.0,69.0,-100.00,ESE,120,2.0,5.0,54,0.00,,,-99.99,,2013-07-14 18:42:00,
2013-07-14 14:52:00,88.0,69.0,-100.00,ESE,120,2.0,5.0,54,0.00,,,-99.99,,2013-07-14 18:52:00,
2013-07-14 15:02:00,88.0,70.0,-100.00,ESE,106,2.0,4.0,56,0.00,,,-99.99,,2013-07-14 19:02:00,
2013-07-14 15:12:00,88.0,70.0,-100.00,ESE,106,2.0,4.0,56,0.00,,,-99.99,,2013-07-14 19:12:00,
2013-07-14 15:22:00,88.0,68.0,-100.00,ESE,123,3.0,5.0,51,0.00,,,-99.99,,2013-07-14 19:22:00,
2013-07-14 15:32:00,88.0,68.0,-100.00,ESE,123,3.0,5.0,51,0.00,,,-99.99,,2013-07-14 19:32:00,
2013-07-14 15:43:00,89.0,69.0,-100.00,ENE,66,1.0,2.0,53,0.00,,,-99.99,,2013-07-14 19:43:00,
2013-07-14 15:53:00,89.0,69.0,-100.00,ENE,66,1.0,2.0,53,0.00,,,-99.99,,2013-07-14 19:53:00,
2013-07-14 16:02:00,83.0,71.0,-100.00,WSW,256,10.0,14.0,68,0.00,,,-99.99,,2013-07-14 20:02:00,
2013-07-14 16:11:00,83.0,71.0,-100.00,WSW,256,10.0,14.0,68,0.00,,,-99.99,,2013-07-14 20:11:00,
2013-07-14 16:22:00,83.0,72.0,-100.00,West,277,6.0,8.0,70,0.00,,,-99.99,,2013-07-14 20:22:00,
2013-07-14 16:32:00,83.0,72.0,-100.00,West,277,6.0,8.0,70,0.00,,,-99.99,,2013-07-14 20:32:00,
2013-07-14 16:43:00,83.0,72.0,-100.00,West,277,6.0,8.0,70,0.00,,,-99.99,,2013-07-14 20:43:00,
2013-07-14 16:53:00,85.0,71.0,-100.00,West,281,2.0,3.0,63,0.00,,,-99.99,,2013-07-14 20:53:00,
2013-07-14 17:02:00,86.0,73.0,-100.00,SE,126,1.0,3.0,65,0.00,,,-99.99,,2013-07-14 21:02:00,
2013-07-14 17:11:00,86.0,73.0,-100.00,SE,126,1.0,3.0,65,0.00,,,-99.99,,2013-07-14 21:11:00,
2013-07-14 17:22:00,85.0,73.0,-100.00,East,93,2.0,3.0,68,0.00,,,-99.99,,2013-07-14 21:22:00,
2013-07-14 17:32:00,85.0,73.0,-100.00,East,93,2.0,3.0,68,0.00,,,-99.99,,2013-07-14 21:32:00,
2013-07-14 17:43:00,85.0,73.0,-100.00,ESE,109,2.0,2.0,69,0.00,,,-99.99,,2013-07-14 21:43:00,
2013-07-14 17:53:00,85.0,73.0,-100.00,ESE,109,2.0,2.0,69,0.00,,,-99.99,,2013-07-14 21:53:00,
2013-07-14 18:01:00,87.0,72.0,-100.00,ESE,116,1.0,2.0,63,0.00,,,-99.99,,2013-07-14 22:01:00,
2013-07-14 18:11:00,87.0,72.0,-100.00,ESE,116,1.0,2.0,63,0.00,,,-99.99,,2013-07-14 22:11:00,
2013-07-14 18:22:00,88.0,72.0,-100.00,SE,137,1.0,2.0,61,0.00,,,-99.99,,2013-07-14 22:22:00,
2013-07-14 18:32:00,88.0,72.0,-100.00,SE,137,1.0,2.0,61,0.00,,,-99.99,,2013-07-14 22:32:00,
2013-07-14 18:42:00,87.0,73.0,-100.00,SE,126,1.0,2.0,64,0.00,,,-99.99,,2013-07-14 22:42:00,
2013-07-14 18:53:00,87.0,73.0,-100.00,SE,126,1.0,2.0,64,0.00,,,-99.99,,2013-07-14 22:53:00,
2013-07-14 19:01:00,85.0,73.0,-100.00,South,169,1.0,2.0,66,0.00,,,-99.99,,2013-07-14 23:01:00,
2013-07-14 19:11:00,85.0,73.0,-100.00,South,169,1.0,2.0,66,0.00,,,-99.99,,2013-07-14 23:11:00,
2013-07-14 19:22:00,85.0,73.0,-100.00,South,169,1.0,2.0,66,0.00,,,-99.99,,2013-07-14 23:22:00,
2013-07-14 19:32:00,85.0,73.0,-100.00,South,175,1.0,3.0,68,0.00,,,-99.99,,2013-07-14 23:32:00,
2013-07-14 19:42:00,85.0,73.0,-100.00,South,175,1.0,3.0,68,0.00,,,-99.99,,2013-07-14 23:42:00,
2013-07-14 19:53:00,83.0,75.0,-100.00,South,171,0.0,1.0,75,0.00,,,-99.99,,2013-07-14 23:53:00,
2013-07-14 20:02:00,82.0,76.0,-100.00,SSW,203,0.0,1.0,80,0.00,,,-99.99,,2013-07-15 00:02:00,
2013-07-14 20:11:00,82.0,76.0,-100.00,SSW,203,0.0,1.0,80,0.00,,,-99.99,,2013-07-15 00:11:00,
2013-07-14 20:22:00,82.0,76.0,-100.00,SSW,203,0.0,1.0,80,0.00,,,-99.99,,2013-07-15 00:22:00,
2013-07-14 20:32:00,81.0,76.0,-100.00,SSW,205,0.0,-999.0,83,0.00,,,-99.99,,2013-07-15 00:32:00,
2013-07-14 20:43:00,81.0,75.0,-100.00,WNW,295,0.0,1.0,82,0.00,,,-99.99,,2013-07-15 00:43:00,
2013-07-14 20:53:00,81.0,75.0,-100.00,WNW,295,0.0,1.0,82,0.00,,,-99.99,,2013-07-15 00:53:00,
2013-07-14 21:01:00,80.0,73.0,-100.00,SE,144,0.0,0.0,80,0.00,,,-99.99,,2013-07-15 01:01:00,
2013-07-14 21:11:00,80.0,73.0,-100.00,SE,144,0.0,0.0,80,0.00,,,-99.99,,2013-07-15 01:11:00,
2013-07-14 21:22:00,79.0,74.0,-100.00,SSE,168,0.0,0.0,84,0.00,,,-99.99,,2013-07-15 01:22:00,
2013-07-14 21:32:00,79.0,74.0,-100.00,SSE,168,0.0,0.0,84,0.00,,,-99.99,,2013-07-15 01:32:00,
2013-07-14 21:43:00,79.0,74.0,-100.00,SSE,168,0.0,0.0,84,0.00,,,-99.99,,2013-07-15 01:43:00,
2013-07-14 21:53:00,79.0,73.0,-100.00,SSE,167,0.0,0.0,82,0.00,,,-99.99,,2013-07-15 01:53:00,
2013-07-14 22:02:00,79.0,73.0,-100.00,SSE,167,0.0,0.0,82,0.00,,,-99.99,,2013-07-15 02:02:00,
2013-07-14 22:11:00,78.0,73.0,-100.00,South,185,0.0,0.0,86,0.00,,,-99.99,,2013-07-15 02:11:00,
2013-07-14 22:22:00,77.0,73.0,-100.00,SSE,152,0.0,0.0,88,0.00,,,-99.99,,2013-07-15 02:22:00,
2013-07-14 22:32:00,77.0,73.0,-100.00,SSE,152,0.0,0.0,88,0.00,,,-99.99,,2013-07-15 02:32:00,
2013-07-14 22:42:00,77.0,73.0,-100.00,SSE,154,0.0,1.0,86,0.00,,,-99.99,,2013-07-15 02:42:00,
2013-07-14 22:53:00,77.0,73.0,-100.00,SSE,154,0.0,1.0,86,0.00,,,-99.99,,2013-07-15 02:53:00,
2013-07-14 23:02:00,78.0,73.0,-100.00,East,88,0.0,2.0,86,0.00,,,-99.99,,2013-07-15 03:02:00,
2013-07-14 23:11:00,78.0,73.0,-100.00,East,88,0.0,2.0,86,0.00,,,-99.99,,2013-07-15 03:11:00,
2013-07-14 23:22:00,77.0,73.0,-100.00,South,169,1.0,3.0,89,0.00,,,-99.99,,2013-07-15 03:22:00,
2013-07-14 23:32:00,77.0,73.0,-100.00,South,169,1.0,3.0,89,0.00,,,-99.99,,2013-07-15 03:32:00,
2013-07-14 23:43:00,77.0,73.0,-100.00,South,169,1.0,3.0,89,0.00,,,-99.99,,2013-07-15 03:43:00,
2013-07-14 23:53:00,76.0,73.0,-100.00,SSE,160,1.0,3.0,90,0.00,,,-99.99,,2013-07-15 03:53:00,